Erie, PA

8:53 PM EDT on October 16, 2019 (GMT -0400)
Erie International

Weather History for KERI - August, 2019

Change the Weather History Date:

Sunday, August 11, 2019

  Actual Average Record
Temperature  
Mean Temperature 70 °F 71 °F  
Max Temperature 81 °F 79 °F 91 °F (1918)
Min Temperature 58 °F 63 °F 45 °F (1972)
Degree Days  
Heating Degree Days 0 0  
Month to date heating degree days 0 0  
Since 1 June heating degree days 38 68  
Since 1 July heating degree days 0 7  
Cooling Degree Days 5 6  
Month to date cooling degree days 87 74  
Year to date cooling degree days 552 449  
Since 1 June cooling degree days 519 410  
Growing Degree Days 19 (Base 50)    
Moisture  
Dew Point 54 °F    
Average Humidity 57    
Maximum Humidity 75    
Minimum Humidity 39    
Precipitation  
Precipitation 0.00 in 0.11 in 1.39 in (1941)
Month to date precipitation 0.89 1.28  
Year to date precipitation 23.39 23.64  
Snow  
Snow 0.00 in 0.00 in - ()
Month to date snowfall 0.0 0.0  
Since 1 June snowfall 0.0 0.0  
Since 1 July snowfall 0.0 0.0  
Snow Depth 0.00 in    
Sea Level Pressure  
Sea Level Pressure 30.04 in    
Wind  
Wind Speed 7 mph (SW)    
Max Wind Speed 12 mph    
Max Gust Speed 15 mph    
Visibility 10 miles    
Events      
T = Trace of Precipitation, MM = Missing Value Source: NWS Daily Summary

Daily Weather History Graph

Daily Weather History Graph

Search for Another Location

Airport or City:

Astronomy

Aug. 11, 2019 Rise Set
Actual Time 6:24 AM EDT 8:27 PM EDT
Civil Twilight 5:53 AM EDT 8:57 PM EDT
Nautical Twilight 5:15 AM EDT 9:34 PM EDT
Astronomical Twilight 4:34 AM EDT 10:15 PM EDT
Moon 6:07 PM EDT (8/11) 2:41 AM EDT (8/11)
Length of Visible Light 15h 04m
Length of Day
14h 03m
Waxing Gibbous, 87% of the Moon is Illuminated
Aug 11
Waxing Gibbous
Aug 15
Full
Aug 23
Last Quarter
Aug 30
New
Sep 5
First Quarter

Hourly Weather History & Observations

Time (EDT) Temp. Heat Index Dew Point Humidity Pressure Visibility Wind Dir Wind Speed Gust Speed Precip Events Conditions
12:51 AM 63.0 °F - 52.0 °F 67% 30.03 in 10.0 mi South 4.6 mph - N/A   Mostly Cloudy
1:51 AM 62.1 °F - 53.1 °F 72% 30.03 in 10.0 mi South 5.8 mph - N/A   Overcast
2:51 AM 62.1 °F - 53.1 °F 72% 30.04 in 10.0 mi South 6.9 mph - N/A   Mostly Cloudy
3:51 AM 61.0 °F - 52.0 °F 72% 30.05 in 10.0 mi South 5.8 mph - N/A   Mostly Cloudy
4:51 AM 60.1 °F - 52.0 °F 75% 30.05 in 10.0 mi South 5.8 mph - N/A   Mostly Cloudy
5:51 AM 59.0 °F - 51.1 °F 75% 30.05 in 10.0 mi South 6.9 mph - N/A   Clear
6:51 AM 59.0 °F - 51.1 °F 75% 30.07 in 10.0 mi South 8.1 mph - N/A   Clear
7:51 AM 64.0 °F - 52.0 °F 65% 30.08 in 10.0 mi South 8.1 mph - N/A   Clear
8:51 AM 69.1 °F - 53.1 °F 57% 30.08 in 10.0 mi SSW 8.1 mph - N/A   Clear
9:51 AM 73.9 °F - 54.0 °F 50% 30.09 in 10.0 mi SSW 6.9 mph - N/A   Clear
10:51 AM 75.9 °F - 52.0 °F 43% 30.09 in 10.0 mi SW 6.9 mph - N/A   Clear
11:51 AM 77.0 °F - 52.0 °F 42% 30.09 in 10.0 mi Variable 4.6 mph - N/A   Mostly Cloudy
12:51 PM 78.1 °F - 51.1 °F 39% 30.08 in 10.0 mi WNW 9.2 mph - N/A   Partly Cloudy
1:51 PM 79.0 °F - 51.1 °F 38% 30.07 in 10.0 mi WNW 9.2 mph - N/A   Clear
2:51 PM 81.0 °F 80.7 °F 55.0 °F 41% 30.06 in 10.0 mi NW 9.2 mph - N/A   Clear
3:51 PM 80.1 °F 80.0 °F 54.0 °F 40% 30.05 in 10.0 mi NW 6.9 mph - N/A   Clear
4:51 PM 80.1 °F 80.2 °F 55.9 °F 43% 30.03 in 10.0 mi NW 9.2 mph - N/A   Clear
5:51 PM 79.0 °F - 57.9 °F 48% 30.03 in 10.0 mi West 6.9 mph - N/A   Clear
6:51 PM 78.1 °F - 60.1 °F 54% 30.02 in 10.0 mi West 6.9 mph - N/A   Clear
7:51 PM 77.0 °F - 57.9 °F 52% 30.00 in 10.0 mi SW 3.5 mph - N/A   Clear
8:51 PM 73.0 °F - 59.0 °F 61% 30.00 in 10.0 mi South 3.5 mph - N/A   Clear
9:51 PM 70.0 °F - 59.0 °F 68% 30.00 in 10.0 mi South 4.6 mph - N/A   Clear
10:51 PM 69.1 °F - 59.0 °F 70% 30.00 in 10.0 mi SSW 4.6 mph - N/A   Clear
11:51 PM 68.0 °F - 57.9 °F 70% 29.99 in 10.0 mi SSW 4.6 mph - N/A   Clear